When you browse on this site, cookies collect data to enhance your experience and personalize the content and advertising you see.
Visit our Privacy Policy to learn more. By continuing to use the site, you agree to this use of cookies and data.
  • In Hungary
  • List of Countries
  • For 7 days
  • Water Temperature
  • Satellite Maps
  • Weather Map
  • News
  • Weather Widgets
  • user-avatar
    Login

    Hourly Weather Afragola

    Today, 10 December, Monday

    Time Temperature Precipitation Wind Pressure Humidity
    00:00 +10°C° 0.1 mm 6 mps 754 mmHg 80%
    01:00 +9°C° 0 mm 5 mps 754 mmHg 82%
    02:00 +9°C° 0 mm 5 mps 754 mmHg 81%
    03:00 +10°C° 0 mm 4 mps 754 mmHg 80%
    04:00 +10°C° 0 mm 4 mps 754 mmHg 79%
    05:00 +10°C° 0 mm 4 mps 754 mmHg 77%
    06:00 +10°C° 0 mm 4 mps 755 mmHg 75%
    07:00 +9°C° 0 mm 3 mps 755 mmHg 73%
    08:00 +11°C° 0 mm 3 mps 755 mmHg 68%
    09:00 +12°C° 0 mm 3 mps 755 mmHg 63%
    10:00 +13°C° 0 mm 3 mps 755 mmHg 57%
    11:00 +14°C° 0 mm 4 mps 755 mmHg 53%
    12:00 +15°C° 0 mm 4 mps 755 mmHg 48%
    13:00 +17°C° 0 mm 4 mps 755 mmHg 43%
    14:00 +15°C° 0.1 mm 4 mps 755 mmHg 48%
    15:00 +14°C° 0.1 mm 4 mps 756 mmHg 53%
    16:00 +13°C° 0.1 mm 4 mps 756 mmHg 58%
    17:00 +12°C° 0.1 mm 5 mps 756 mmHg 61%
    18:00 +10°C° 0.1 mm 5 mps 757 mmHg 65%
    19:00 +10°C° 0.1 mm 5 mps 757 mmHg 68%
    20:00 +9°C° 0 mm 5 mps 757 mmHg 69%
    21:00 +10°C° 0 mm 4 mps 758 mmHg 71%
    22:00 +8°C° 0 mm 4 mps 758 mmHg 72%
    23:00 +8°C° 0 mm 4 mps 759 mmHg 73%

    Tomorrow, 11 December, Tuesday

    Time Temperature Precipitation Wind Pressure Humidity
    00:00 +9°C° 0 mm 3 mps 759 mmHg 73%
    01:00 +9°C° 0 mm 3 mps 759 mmHg 73%
    02:00 +8°C° 0 mm 3 mps 759 mmHg 74%
    03:00 +8°C° 0 mm 3 mps 759 mmHg 74%
    04:00 +7°C° 0 mm 3 mps 759 mmHg 75%
    05:00 +7°C° 0 mm 2 mps 759 mmHg 74%
    06:00 +7°C° 0 mm 2 mps 759 mmHg 73%
    07:00 +7°C° 0 mm 2 mps 759 mmHg 73%
    08:00 +8°C° 0 mm 2 mps 759 mmHg 65%
    09:00 +9°C° 0 mm 2 mps 760 mmHg 57%
    10:00 +12°C° 0 mm 1 mps 760 mmHg 50%
    11:00 +12°C° 0 mm 1 mps 759 mmHg 48%
    12:00 +13°C° 0 mm 1 mps 759 mmHg 46%
    13:00 +14°C° 0 mm 1 mps 759 mmHg 44%
    14:00 +13°C° 0.1 mm 1 mps 759 mmHg 48%
    15:00 +13°C° 0.1 mm 1 mps 759 mmHg 52%
    16:00 +12°C° 0.1 mm 1 mps 759 mmHg 55%
    17:00 +11°C° 0 mm 1 mps 760 mmHg 58%
    18:00 +10°C° 0 mm 2 mps 760 mmHg 60%
    19:00 +9°C° 0 mm 2 mps 760 mmHg 63%
    20:00 +8°C° 0 mm 2 mps 760 mmHg 64%
    21:00 +8°C° 0 mm 3 mps 760 mmHg 66%
    22:00 +7°C° 0 mm 3 mps 761 mmHg 67%
    23:00 +7°C° 0 mm 3 mps 761 mmHg 68%

    Day after tomorrow, 12 December, Wednesday

    Time Temperature Precipitation Wind Pressure Humidity
    00:00 +7°C° 0 mm 3 mps 761 mmHg 69%
    01:00 +5°C° 0 mm 3 mps 761 mmHg 70%
    02:00 +5°C° 0 mm 3 mps 760 mmHg 69%
    03:00 +5°C° 0 mm 3 mps 760 mmHg 68%
    04:00 +5°C° 0 mm 3 mps 760 mmHg 68%
    05:00 +5°C° 0 mm 3 mps 760 mmHg 65%
    06:00 +5°C° 0 mm 3 mps 760 mmHg 62%
    07:00 +5°C° 0 mm 3 mps 761 mmHg 59%
    08:00 +7°C° 0 mm 3 mps 760 mmHg 53%
    09:00 +8°C° 0 mm 3 mps 760 mmHg 47%
    10:00 +10°C° 0 mm 3 mps 760 mmHg 41%
    11:00 +11°C° 0 mm 3 mps 760 mmHg 40%
    12:00 +11°C° 0 mm 3 mps 760 mmHg 40%
    13:00 +12°C° 0 mm 3 mps 759 mmHg 39%
    14:00 +12°C° 0.1 mm 3 mps 759 mmHg 43%
    15:00 +11°C° 0.1 mm 3 mps 758 mmHg 47%
    16:00 +11°C° 0.1 mm 3 mps 758 mmHg 51%
    17:00 +10°C° 0.5 mm 3 mps 758 mmHg 53%
    18:00 +10°C° 0.5 mm 3 mps 758 mmHg 55%
    19:00 +9°C° 0.5 mm 3 mps 757 mmHg 57%
    20:00 +9°C° 0.3 mm 3 mps 757 mmHg 61%
    21:00 +9°C° 0.3 mm 3 mps 757 mmHg 65%
    22:00 +9°C° 0.3 mm 2 mps 757 mmHg 69%
    23:00 +8°C° 0.3 mm 2 mps 757 mmHg 73%

    13 December, Thursday

    Time Temperature Precipitation Wind Pressure Humidity
    00:00 +8°C° 0.3 mm 2 mps 757 mmHg 77%
    01:00 +8°C° 0.3 mm 2 mps 756 mmHg 82%
    02:00 +9°C° 0.1 mm 2 mps 756 mmHg 84%
    03:00 +9°C° 0.1 mm 2 mps 756 mmHg 86%
    04:00 +9°C° 0.1 mm 2 mps 756 mmHg 88%
    05:00 +9°C° 0.2 mm 2 mps 756 mmHg 88%
    06:00 +9°C° 0.2 mm 2 mps 756 mmHg 89%
    07:00 +9°C° 0.2 mm 2 mps 756 mmHg 90%
    08:00 +10°C° 0.1 mm 2 mps 756 mmHg 87%
    09:00 +12°C° 0.1 mm 2 mps 756 mmHg 84%
    10:00 +13°C° 0.1 mm 2 mps 756 mmHg 81%
    11:00 +12°C° 0.1 mm 3 mps 756 mmHg 78%
    12:00 +13°C° 0.1 mm 3 mps 756 mmHg 76%
    13:00 +13°C° 0.1 mm 4 mps 756 mmHg 73%
    14:00 +13°C° 0.1 mm 4 mps 755 mmHg 75%
    15:00 +13°C° 0.1 mm 3 mps 755 mmHg 76%
    16:00 +13°C° 0.1 mm 3 mps 755 mmHg 78%
    17:00 +12°C° 0 mm 3 mps 755 mmHg 81%
    18:00 +13°C° 0 mm 2 mps 756 mmHg 83%
    19:00 +12°C° 0 mm 1 mps 756 mmHg 86%
    20:00 +12°C° 0 mm 2 mps 756 mmHg 87%
    21:00 +12°C° 0 mm 2 mps 756 mmHg 88%
    22:00 +10°C° 0 mm 2 mps 756 mmHg 89%
    23:00 +10°C° 0 mm 2 mps 756 mmHg 90%

    14 December, Friday

    Time Temperature Precipitation Wind Pressure Humidity
    00:00 +10°C° 0 mm 3 mps 756 mmHg 90%
    01:00 +10°C° 0 mm 3 mps 756 mmHg 91%
    02:00 +10°C° 0 mm 3 mps 756 mmHg 91%
    03:00 +10°C° 0 mm 3 mps 756 mmHg 91%
    04:00 +10°C° 0 mm 3 mps 756 mmHg 90%
    05:00 +10°C° 0 mm 3 mps 756 mmHg 89%
    06:00 +10°C° 0 mm 3 mps 756 mmHg 87%
    07:00 +9°C° 0 mm 3 mps 756 mmHg 85%
    08:00 +11°C° 0 mm 3 mps 756 mmHg 80%
    09:00 +12°C° 0 mm 3 mps 756 mmHg 74%
    10:00 +13°C° 0 mm 3 mps 757 mmHg 69%
    11:00 +16°C° 0 mm 3 mps 756 mmHg 63%
    12:00 +17°C° 0 mm 3 mps 756 mmHg 57%
    13:00 +18°C° 0 mm 2 mps 756 mmHg 51%
    14:00 +17°C° 0 mm 2 mps 756 mmHg 53%
    15:00 +17°C° 0 mm 2 mps 757 mmHg 56%
    16:00 +16°C° 0 mm 2 mps 757 mmHg 59%
    17:00 +15°C° 0 mm 2 mps 757 mmHg 63%
    18:00 +14°C° 0 mm 2 mps 758 mmHg 67%
    19:00 +13°C° 0 mm 2 mps 758 mmHg 71%
    20:00 +12°C° 0 mm 3 mps 758 mmHg 72%
    21:00 +11°C° 0 mm 3 mps 759 mmHg 73%
    22:00 +11°C° 0 mm 3 mps 759 mmHg 75%
    23:00 +11°C° 0 mm 3 mps 759 mmHg 75%

    15 December, Saturday

    Time Temperature Precipitation Wind Pressure Humidity
    00:00 +11°C° 0 mm 3 mps 759 mmHg 76%
    01:00 +11°C° 0 mm 3 mps 760 mmHg 76%
    02:00 +10°C° 0 mm 3 mps 760 mmHg 77%
    03:00 +10°C° 0 mm 4 mps 760 mmHg 77%
    04:00 +10°C° 0 mm 4 mps 760 mmHg 78%
    05:00 +10°C° 0 mm 4 mps 760 mmHg 80%
    06:00 +10°C° 0 mm 4 mps 761 mmHg 82%
    07:00 +10°C° 0 mm 4 mps 761 mmHg 83%
    08:00 +11°C° 0 mm 4 mps 762 mmHg 80%
    09:00 +12°C° 0 mm 4 mps 762 mmHg 78%
    10:00 +13°C° 0 mm 4 mps 762 mmHg 75%
    11:00 +14°C° 0 mm 4 mps 762 mmHg 71%
    12:00 +15°C° 0 mm 4 mps 762 mmHg 68%
    13:00 +17°C° 0 mm 3 mps 762 mmHg 64%
    14:00 +16°C° 0 mm 3 mps 762 mmHg 67%
    15:00 +16°C° 0 mm 3 mps 763 mmHg 70%
    16:00 +14°C° 0 mm 3 mps 763 mmHg 72%
    17:00 +14°C° 0 mm 3 mps 763 mmHg 75%
    18:00 +13°C° 0 mm 3 mps 764 mmHg 78%
    19:00 +12°C° 0 mm 3 mps 764 mmHg 81%
    20:00 +12°C° 0 mm 3 mps 764 mmHg 82%
    21:00 +12°C° 0 mm 3 mps 765 mmHg 83%
    22:00 +12°C° 0 mm 3 mps 765 mmHg 83%
    23:00 +11°C° 0 mm 3 mps 765 mmHg 84%
    Show more